Weather History for Spartanburg, SC

Change the Weather History Date:

Monday, July 15, 2013

  Actual Average (KGSP) Record (KGSP)
Temperature  
Mean Temperature 79 °F 80 °F  
Max Temperature 87 °F 91 °F 102 °F (1887)
Min Temperature 71 °F 70 °F 56 °F (1897)
Degree Days  
Heating Degree Days 0 0  
Month to date heating degree days 0  
Since 1 June heating degree days 2  
Since 1 July heating degree days 0  
Cooling Degree Days 14 15  
Month to date cooling degree days 223  
Year to date cooling degree days 775  
Since 1 June cooling degree days 574  
Growing Degree Days 29 (Base 50)    
Moisture  
Dew Point 72 °F    
Average Humidity 84    
Maximum Humidity 100    
Minimum Humidity 58    
Precipitation  
Precipitation 0.00 in 0.16 in 2.75 in (1984)
Month to date precipitation 2.18  
Year to date precipitation 25.41  
Snow  
Snow 0.00 in 0.00 in 0.00 in ()
Month to date snowfall 0.0  
Since 1 June snowfall 0.0  
Since 1 July snowfall 0.0  
Snow Depth -    
Sea Level Pressure  
Sea Level Pressure 30.30 in    
Wind  
Wind Speed 4 mph (ENE)    
Max Wind Speed 12 mph    
Max Gust Speed -    
Visibility 8 miles    
Events Rain , Thunderstorm    
T = Trace of Precipitation, MM = Missing Value Source: NWS Daily Summary

Daily Weather History Graph

Daily Weather History Graph

Search for Another Location

Airport:

Trip Planner

Search our weather history database for the weather conditions in past years. The results will help you decide how hot, cold, wet, or windy it might be!

Date:

Astronomy

Jul. 15, 2013 Rise Set
Actual Time 6:25 AM EDT 8:41 PM EDT
Civil Twilight 5:56 AM EDT 9:10 PM EDT
Nautical Twilight 5:21 AM EDT 9:46 PM EDT
Astronomical Twilight 4:42 AM EDT 10:24 PM EDT
Moon 1:24 PM EDT (7/15) 12:11 AM EDT (7/15)
Length of Visible Light 15h 14m
Length of Day
14h 16m
Waxing Crescent, 45% of the Moon is Illuminated
Jul 15
Waxing Crescent
Jul 15
First Quarter
Jul 22
Full
Jul 29
Last Quarter
Aug 6
New

Hourly Weather History & Observations

Time (EDT) Temp. Heat Index Dew Point Humidity Pressure Visibility Wind Dir Wind Speed Gust Speed Precip Events Conditions
12:15 AM 73.4 °F - 73.4 °F 100% 30.29 in 7.0 mi NNE 3.5 mph - N/A   Clear
12:35 AM 73.4 °F - 73.4 °F 100% 30.29 in 7.0 mi Calm Calm - N/A   Scattered Clouds
12:55 AM 71.6 °F - 71.6 °F 100% 30.29 in 7.0 mi NE 3.5 mph - N/A   Scattered Clouds
1:15 AM 71.6 °F - 71.6 °F 100% 30.30 in 7.0 mi NE 3.5 mph - N/A   Clear
1:35 AM 71.6 °F - 71.6 °F 100% 30.30 in 7.0 mi NNE 3.5 mph - N/A   Clear
1:55 AM 71.6 °F - 71.6 °F 100% 30.29 in 7.0 mi NNE 5.8 mph - N/A   Clear
2:15 AM 71.6 °F - 71.6 °F 100% 30.30 in 7.0 mi NNE 3.5 mph - N/A   Clear
2:35 AM 71.6 °F - 71.6 °F 100% 30.30 in 7.0 mi North 3.5 mph - N/A   Clear
2:55 AM 71.6 °F - 71.6 °F 100% 30.30 in 7.0 mi NNE 3.5 mph - N/A   Clear
3:15 AM 71.6 °F - 71.6 °F 100% 30.29 in 7.0 mi NNE 4.6 mph - N/A   Clear
3:35 AM 71.6 °F - 71.6 °F 100% 30.29 in 7.0 mi North 3.5 mph - N/A   Clear
3:55 AM 71.6 °F - 71.6 °F 100% 30.30 in 7.0 mi North 4.6 mph - N/A   Clear
4:15 AM 71.6 °F - 71.6 °F 100% 30.30 in 7.0 mi NNE 5.8 mph - N/A   Mostly Cloudy
4:35 AM 71.6 °F - 71.6 °F 100% 30.29 in 7.0 mi NNE 5.8 mph - N/A   Scattered Clouds
4:55 AM 71.6 °F - 71.6 °F 100% 30.29 in 7.0 mi NNE 3.5 mph - N/A   Scattered Clouds
5:15 AM 71.6 °F - 71.6 °F 100% 30.29 in 7.0 mi NNE 3.5 mph - N/A   Scattered Clouds
5:35 AM 71.6 °F - 71.6 °F 100% 30.30 in 7.0 mi NNE 3.5 mph - N/A   Scattered Clouds
5:55 AM 71.6 °F - 71.6 °F 100% 30.30 in 7.0 mi Calm Calm - N/A   Scattered Clouds
6:15 AM 71.6 °F - 71.6 °F 100% 30.30 in 7.0 mi Calm Calm - N/A   Scattered Clouds
6:35 AM 71.6 °F - 71.6 °F 100% 30.30 in 7.0 mi Calm Calm - N/A   Scattered Clouds
6:55 AM 71.6 °F - 71.6 °F 100% 30.31 in 5.0 mi NE 4.6 mph - N/A   Mostly Cloudy
7:15 AM 71.6 °F - 71.6 °F 100% 30.32 in 5.0 mi NE 5.8 mph - N/A   Mostly Cloudy
7:35 AM 71.6 °F - 71.6 °F 100% 30.32 in 7.0 mi NE 4.6 mph - N/A   Overcast
7:55 AM 73.4 °F - 73.4 °F 100% 30.32 in 7.0 mi NE 5.8 mph - N/A   Scattered Clouds
8:15 AM 73.4 °F - 73.4 °F 100% 30.32 in 5.0 mi NE 3.5 mph - N/A   Mostly Cloudy
8:35 AM 73.4 °F - 73.4 °F 100% 30.33 in 5.0 mi ENE 4.6 mph - N/A   Overcast
8:55 AM 75.2 °F - 75.2 °F 100% 30.33 in 5.0 mi East 3.5 mph - N/A   Overcast
9:15 AM 75.2 °F - 73.4 °F 94% 30.33 in 5.0 mi ENE 6.9 mph - N/A   Overcast
9:35 AM 75.2 °F - 73.4 °F 94% 30.33 in 7.0 mi ENE 5.8 mph - N/A   Overcast
9:55 AM 77.0 °F - 73.4 °F 89% 30.33 in 7.0 mi East 6.9 mph - N/A   Overcast
10:15 AM 77.0 °F - 73.4 °F 89% 30.33 in 7.0 mi East 6.9 mph - N/A   Overcast
10:35 AM 77.0 °F - 73.4 °F 89% 30.33 in 7.0 mi East 5.8 mph - N/A   Overcast
10:55 AM 78.8 °F - 73.4 °F 83% 30.34 in 7.0 mi East 4.6 mph - N/A   Overcast
11:15 AM 78.8 °F - 73.4 °F 83% 30.34 in 7.0 mi ESE 3.5 mph - N/A   Overcast
11:35 AM 78.8 °F - 73.4 °F 83% 30.35 in 7.0 mi East 4.6 mph - N/A   Overcast
11:55 AM 80.6 °F 85.4 °F 73.4 °F 79% 30.35 in 7.0 mi East 6.9 mph - N/A   Mostly Cloudy
12:15 PM 82.4 °F 88.2 °F 73.4 °F 74% 30.34 in 10.0 mi ESE 3.5 mph - N/A   Scattered Clouds
12:35 PM 82.4 °F 87.2 °F 71.6 °F 70% 30.34 in 7.0 mi ENE 5.8 mph - N/A   Scattered Clouds
12:55 PM 82.4 °F 87.2 °F 71.6 °F 70% 30.33 in 10.0 mi ENE 8.1 mph - N/A   Clear
1:15 PM 82.4 °F 87.2 °F 71.6 °F 70% 30.33 in 7.0 mi ENE 6.9 mph - N/A   Scattered Clouds
1:35 PM 84.2 °F 89.6 °F 71.6 °F 66% 30.32 in 10.0 mi ENE 8.1 mph - N/A   Scattered Clouds
1:55 PM 84.2 °F 89.6 °F 71.6 °F 66% 30.31 in 7.0 mi NE 8.1 mph - N/A   Mostly Cloudy
2:15 PM 86.0 °F 91.8 °F 71.6 °F 62% 30.31 in 10.0 mi ENE 8.1 mph - N/A   Scattered Clouds
2:35 PM 84.2 °F 89.6 °F 71.6 °F 66% 30.31 in 7.0 mi ENE 5.8 mph - N/A   Mostly Cloudy
2:55 PM 87.8 °F 93.8 °F 71.6 °F 58% 30.30 in 10.0 mi East 4.6 mph - N/A   Scattered Clouds
3:15 PM 86.0 °F 91.8 °F 71.6 °F 62% 30.30 in 10.0 mi ENE 9.2 mph - N/A   Scattered Clouds
3:35 PM 86.0 °F 91.8 °F 71.6 °F 62% 30.29 in 10.0 mi ENE 4.6 mph - N/A   Mostly Cloudy
3:55 PM 86.0 °F 91.8 °F 71.6 °F 62% 30.29 in 7.0 mi ENE 4.6 mph - N/A   Scattered Clouds
4:15 PM 87.8 °F 93.8 °F 71.6 °F 58% 30.28 in 10.0 mi ENE 6.9 mph - N/A   Scattered Clouds
4:35 PM 87.8 °F 93.8 °F 71.6 °F 58% 30.27 in 10.0 mi ENE 5.8 mph - N/A   Clear
4:55 PM 87.8 °F 93.8 °F 71.6 °F 58% 30.26 in 10.0 mi ENE 5.8 mph - N/A   Clear
5:15 PM 87.8 °F 93.8 °F 71.6 °F 58% 30.26 in 10.0 mi NE 5.8 mph - N/A   Clear
5:35 PM 87.8 °F 93.8 °F 71.6 °F 58% 30.27 in 7.0 mi NE 6.9 mph - N/A   Scattered Clouds
5:55 PM 86.0 °F 91.8 °F 71.6 °F 62% 30.26 in 7.0 mi NE 5.8 mph - N/A   Mostly Cloudy
6:15 PM 86.0 °F 91.8 °F 71.6 °F 62% 30.25 in 10.0 mi ENE 5.8 mph - N/A   Scattered Clouds
6:35 PM 86.0 °F 91.8 °F 71.6 °F 62% 30.27 in 7.0 mi ENE 4.6 mph - N/A   Clear
6:55 PM 86.0 °F 91.8 °F 71.6 °F 62% 30.27 in 10.0 mi East 4.6 mph - N/A   Scattered Clouds
7:15 PM 84.2 °F 90.9 °F 73.4 °F 70% 30.26 in 7.0 mi NE 4.6 mph - N/A   Scattered Clouds
7:35 PM 84.2 °F 90.9 °F 73.4 °F 70% 30.27 in 10.0 mi Calm Calm - N/A   Scattered Clouds
7:55 PM 84.2 °F 90.9 °F 73.4 °F 70% 30.27 in 10.0 mi Calm Calm - N/A   Mostly Cloudy
8:15 PM 82.4 °F 89.5 °F 75.2 °F 79% 30.27 in 7.0 mi SSE 4.6 mph - N/A   Mostly Cloudy
8:35 PM 82.4 °F 89.5 °F 75.2 °F 79% 30.27 in 7.0 mi SE 3.5 mph - N/A Thunderstorm Mostly Cloudy
8:55 PM 80.6 °F 85.4 °F 73.4 °F 79% 30.27 in 10.0 mi SE 3.5 mph - N/A   Mostly Cloudy
9:15 PM 78.8 °F - 73.4 °F 83% 30.28 in 10.0 mi SE 11.5 mph - N/A Rain Light Rain
9:35 PM 77.0 °F - 73.4 °F 89% 30.29 in 10.0 mi SE 5.8 mph - N/A   Mostly Cloudy
9:55 PM 77.0 °F - 73.4 °F 89% 30.29 in 10.0 mi Calm Calm - N/A   Mostly Cloudy
10:15 PM 77.0 °F - 73.4 °F 89% 30.29 in 10.0 mi NE 4.6 mph - N/A   Scattered Clouds
10:35 PM 77.0 °F - 73.4 °F 89% 30.30 in 10.0 mi Calm Calm - N/A   Scattered Clouds
11:15 PM 75.2 °F - 73.4 °F 94% 30.30 in 10.0 mi Calm Calm - N/A   Clear
11:35 PM 75.2 °F - 75.2 °F 100% 30.31 in 10.0 mi Calm Calm - N/A   Scattered Clouds
11:55 PM 75.2 °F - 75.2 °F 100% 30.31 in 10.0 mi Calm Calm - N/A   Mostly Cloudy